Powrót do katalogu

STARLINK-5971

AktywnyŁącznośćVLEO
NORAD 56917·PAYLOAD·🇺🇸 United States

Wystrzelony Jun 12, 2023 z Cape Canaveral Space Force Station

Loading…

Następne Przeloty (najbliższe 24 godziny)

TLE

ŚwieżeSource: CelesTrak SupGP

Epoka: Sep 15, 2026, 02:22 UTC

1 56917C 23083AT  26258.09909722 -.00020384  00000+0 -73809-3 0  2581
2 56917  43.0036  81.1954 0002131 278.2864  78.5267 15.27596770    13

Śledź STARLINK-5971 w czasie rzeczywistym z AllMySat

Download on the App Store